Kenora, Ontario

9:18 AM CDT on August 16, 2017 (GMT -0500)
Kenora

Weather History for CYQK - December, 2012

Change the Weather History Date:

Tuesday, December 18, 2012

  Actual Average Record
Temperature  
Mean Temperature 12 °F -  
Max Temperature 15 °F 10 °F 32 °F (2002)
Min Temperature 9 °F -6 °F -22 °F (2004)
Degree Days  
Heating Degree Days 53    
Moisture  
Dew Point 10 °F    
Average Humidity 90    
Maximum Humidity 93    
Minimum Humidity 85    
Precipitation  
Precipitation 0.01 in 0.04 in - ()
Sea Level Pressure  
Sea Level Pressure 29.77 in    
Wind  
Wind Speed 4 mph ()    
Max Wind Speed 7 mph    
Max Gust Speed -    
Visibility 11.4 miles    
Events Snow    
Averages and records for this station are not official NWS values.
T = Trace of Precipitation, MM = Missing Value Source: Averaged Metar Reports

Daily Weather History Graph

Daily Weather History Graph

Search for Another Location

Airport or City:

Trip Planner

Search our weather history database for the weather conditions in past years. The results will help you decide how hot, cold, wet, or windy it might be!

Date:

Astronomy

Dec. 18, 2012 Rise Set
Actual Time 8:10 AM CST 4:17 PM CST
Civil Twilight 7:32 AM CST 4:56 PM CST
Nautical Twilight 6:51 AM CST 5:37 PM CST
Astronomical Twilight 6:12 AM CST 6:16 PM CST
Moon 11:19 AM CST (12/18) 11:19 PM CST (12/18)
Length of Visible Light 9h 23m
Length of Day
8h 06m
Waxing Crescent, 35% of the Moon is Illuminated
Dec 18
Waxing Crescent
Dec 19
First Quarter
Dec 28
Full
Jan 4
Last Quarter
Jan 11
New

Hourly Weather History & Observations

Time (CST) Temp. Windchill Dew Point Humidity Pressure Visibility Wind Dir Wind Speed Gust Speed Precip Events Conditions
12:00 AM 10 °F - 8 °F 88% 29.75 in 10 mi SSW 6.9 mph - - Snow Light Snow
12:00 AM 10.4 °F -0.4 °F 8.6 °F 92% 29.75 in 10.0 mi South 6.9 mph - N/A Snow Light Snow
1:00 AM 10.4 °F -0.4 °F 6.8 °F 85% 29.75 in 10.0 mi SW 6.9 mph - N/A Snow Light Snow
2:00 AM 8.6 °F -2.6 °F 6.8 °F 92% 29.75 in 10.0 mi SSE 6.9 mph - N/A Snow Light Snow
3:00 AM 10.4 °F 4.0 °F 6.8 °F 85% 29.76 in 10.0 mi South 3.5 mph - N/A Snow Light Snow
4:00 AM 10.4 °F 0.8 °F 8.6 °F 92% 29.75 in 10.0 mi SW 5.8 mph - N/A Snow Light Snow
4:20 AM - - - N/A% - 10.0 mi SW 5.8 mph - N/A   Unknown
5:00 AM 10.4 °F 2.2 °F 8.6 °F 92% 29.75 in 10.0 mi South 4.6 mph - N/A Snow Light Snow
6:00 AM 11 °F - 9 °F 86% 29.75 in 12 mi South 3.5 mph - - Snow Light Snow
6:00 AM 10.4 °F 4.0 °F 8.6 °F 92% 29.75 in 12.0 mi SSE 3.5 mph - N/A Snow Light Snow
7:00 AM 12.2 °F 6.1 °F 8.6 °F 85% 29.76 in 10.0 mi SSW 3.5 mph - N/A Snow Light Snow
8:00 AM 12.2 °F 4.3 °F 8.6 °F 85% 29.75 in 10.0 mi SE 4.6 mph - N/A Snow Light Snow
9:00 AM 12.2 °F 2.9 °F 10.4 °F 92% 29.76 in 10.0 mi SE 5.8 mph - N/A Snow Light Snow
10:00 AM 12.2 °F 2.9 °F 10.4 °F 92% 29.76 in 10.0 mi SSE 5.8 mph - N/A Snow Light Snow
11:00 AM 12.2 °F 6.1 °F 10.4 °F 92% 29.76 in 12.0 mi SE 3.5 mph - N/A Snow Light Snow
11:30 AM - - - N/A% - 2.0 mi SW 3.5 mph - N/A   Unknown
11:47 AM - - - N/A% - 1.0 mi ESE 2.3 mph - N/A   Unknown
12:00 PM 13 °F - 11 °F 88% 29.76 in 3 mi SSE 3.5 mph - - Snow Light Snow
12:00 PM 14.0 °F - 10.4 °F 86% 29.76 in 3.0 mi SSE 2.3 mph - N/A Snow Light Snow
1:00 PM 14.0 °F - 12.2 °F 93% 29.75 in 12.0 mi SW 2.3 mph - N/A Snow Light Snow
2:00 PM 14.0 °F - 12.2 °F 93% 29.75 in 15.0 mi ESE 2.3 mph - N/A Snow Light Snow
3:00 PM 14.0 °F - 12.2 °F 93% 29.76 in 15.0 mi ESE 2.3 mph - N/A Snow Light Snow
3:12 PM - - - N/A% - 15.0 mi SSE 2.3 mph - N/A   Unknown
4:00 PM 14.0 °F - 12.2 °F 93% 29.77 in 15.0 mi SE 2.3 mph - N/A Snow Light Snow
5:00 PM 12.2 °F 4.3 °F 10.4 °F 92% 29.78 in 15.0 mi ESE 4.6 mph - N/A Snow Light Snow
6:00 PM 14 °F - 12 °F 86% 29.79 in 15 mi SE 5.8 mph - - Snow Light Snow
6:00 PM 14.0 °F 5.1 °F 12.2 °F 93% 29.79 in 15.0 mi SE 5.8 mph - N/A Snow Light Snow
7:00 PM 14.0 °F 5.1 °F 12.2 °F 93% 29.80 in 15.0 mi SE 5.8 mph - N/A Snow Light Snow
8:00 PM 14.0 °F - 12.2 °F 93% 29.81 in 15.0 mi SE 2.3 mph - N/A Snow Light Snow
9:00 PM 14.0 °F - 12.2 °F 93% 29.81 in 15.0 mi ESE 2.3 mph - N/A Snow Light Snow
10:00 PM 15.8 °F 8.6 °F 12.2 °F 86% 29.81 in 15.0 mi SE 4.6 mph - N/A Snow Light Snow
11:00 PM 15.8 °F 10.2 °F 14.0 °F 93% 29.81 in 15.0 mi ESE 3.5 mph - N/A Snow Light Snow
11:18 PM - - - N/A% - 15.0 mi East 3.5 mph - N/A   Unknown
11:36 PM - - - N/A% - 15.0 mi South 3.5 mph - N/A   Unknown